Flag for U.S.A. Weather past 2 weeks in Cincinnati, Ohio, U.S.A.

Now
79 °F

Passing clouds.


Feels Like: 80 °F
Forecast: 59 / 80 °F
Wind: No wind

Location: Cincinnati Municipal Airport Lunken Field

Current Time: Jul 1, 2015 at 6:20:02 PM

Latest Report: Jul 1, 2015 at 5:53 PM


Visibility: 10 mi

Pressure: 29.88 "Hg

Humidity: 50%

Dew point: 59 °F

Location of CincinnatiLocation

Historic Weather in Cincinnati — Graph

°F

Cincinnati temperature yesterday

Maximum temperature yesterday: 77 °F (at 12:53 PM)
Minimum temperature yesterday: 62 °F (at 9:53 PM)
Average temperature yesterday: 67 °F

Past Weeks' High & Low Weather Summary

 TemperatureHumidityPressure
High88 °F (Jun 23, 2:53 PM)100% (Jun 16, 9:53 PM)30.17 "Hg (Jun 16, 9:53 PM)
Low58 °F (Jul 1, 4:58 AM)34% (Jun 24, 2:53 PM)29.72 "Hg (Jun 27, 7:53 AM)
Average72 °F81%29.95 "Hg
* Reported Jun 16 4:53 PM — Jul 1 4:53 PM, Cincinnati, Weather by CustomWeather, © 2015

Note: Actual official high and low records may vary slightly from our data, if they occured in-between our weather recording intervals... More about our weather records

Advertising

Cincinnati weather history for previous 24 hours

 ConditionsComfort  
Time TempWeatherWind HumidityBarometerVisibility
4:53 PM
Wed, Jul 1
79 °FSunny.3 mph52%29.89 "Hg10 mi
3:53 PM80 °FPassing clouds.6 mph51%29.90 "Hg10 mi
2:53 PM78 °FPassing clouds.6 mph60%29.90 "Hg10 mi
1:53 PM77 °FScattered clouds.7 mph64%29.93 "Hg10 mi
12:53 PM77 °FPartly sunny.5 mph62%29.94 "Hg10 mi
11:53 AM74 °FSunny.3 mph69%29.95 "Hg10 mi
10:53 AM71 °FSunny.3 mph76%29.93 "Hg10 mi
9:53 AM66 °FSunny.No wind93%29.96 "Hg7 mi
8:53 AM63 °FFog.No wind100%29.93 "Hg0 mi
7:58 AM62 °FFog.No wind100%29.92 "Hg1 mi
6:53 AM59 °FFog.No wind100%29.90 "Hg1 mi
5:53 AM58 °FFog.No wind100%29.90 "Hg0 mi
4:58 AM58 °FFog.No wind100%29.90 "Hg1 mi
4:02 AM60 °FFog.No wind90%29.89 "Hg1 mi
3:58 AM60 °FFog.No wind86%29.89 "Hg1 mi
2:53 AM61 °FFog.3 mph87%29.88 "Hg4 mi
1:53 AM63 °FPassing clouds.3 mph84%29.88 "Hg7 mi
11:53 PM
Tue, Jun 30
63 °FPassing clouds.5 mph84%29.88 "Hg7 mi
10:53 PM64 °FPartly cloudy.3 mph87%29.90 "Hg7 mi
9:53 PM62 °FSunny.No wind86%29.85 "Hg8 mi
8:53 PM65 °FPartly sunny.No wind78%29.84 "Hg9 mi
7:53 PM66 °FPassing clouds.3 mph81%29.83 "Hg9 mi
6:53 PM64 °FPassing clouds.6 mph84%29.82 "Hg9 mi
Weather by CustomWeather, © 2015

See weather overviewHow to use our weather pages